Hoquiam, WA

1:04 AM PDT on July 22, 2017 (GMT -0700)
Bowerman

Weather History for KHQM - January, 2013

Change the Weather History Date:

Tuesday, January 8, 2013

  Actual Average Record
Temperature  
Mean Temperature 46 °F 42 °F  
Max Temperature 51 °F 47 °F 56 °F (1986)
Min Temperature 42 °F 38 °F 20 °F (1974)
Degree Days  
Heating Degree Days 18 23  
Month to date heating degree days 184  
Cooling Degree Days 0 0  
Month to date cooling degree days 0  
Year to date cooling degree days 0  
Moisture  
Dew Point 46 °F    
Average Humidity 94    
Maximum Humidity 100    
Minimum Humidity 86    
Precipitation  
Precipitation 0.99 in 0.35 in 1.48 in (1991)
Month to date precipitation 2.79  
Year to date precipitation 2.79  
Sea Level Pressure  
Sea Level Pressure 29.93 in    
Wind  
Wind Speed 14 mph (SSE)    
Max Wind Speed 36 mph    
Max Gust Speed 51 mph    
Visibility 4 miles    
Events Rain    
T = Trace of Precipitation, MM = Missing Value Source: NWS Daily Summary

Daily Weather History Graph

Daily Weather History Graph

Search for Another Location

Airport or City:

Trip Planner

Search our weather history database for the weather conditions in past years. The results will help you decide how hot, cold, wet, or windy it might be!

Date:

Astronomy

Jan. 08, 2013 Rise Set
Actual Time 8:00 AM PST 4:45 PM PST
Civil Twilight 7:25 AM PST 5:20 PM PST
Nautical Twilight 6:47 AM PST 5:58 PM PST
Astronomical Twilight 6:10 AM PST 6:35 PM PST
Moon 4:38 AM PST (1/8) 1:53 PM PST (1/8)
Length of Visible Light 9h 54m
Length of Day
8h 45m
Waning Crescent, 13% of the Moon is Illuminated
Jan 8
Waning Crescent
Jan 11
New
Jan 18
First Quarter
Jan 26
Full
Feb 3
Last Quarter

Hourly Weather History & Observations

Time (PST) Temp. Windchill Dew Point Humidity Pressure Visibility Wind Dir Wind Speed Gust Speed Precip Events Conditions
12:30 AM 44.6 °F 43.1 °F 42.8 °F 93% 30.18 in 9.0 mi East 3.5 mph - N/A   Overcast
12:45 AM 44.6 °F - 42.8 °F 93% 30.17 in 9.0 mi Calm Calm - N/A   Overcast
12:53 AM 44.1 °F - 43.0 °F 96% 30.18 in 8.0 mi Calm Calm - N/A   Overcast
1:31 AM 44.6 °F 41.4 °F 42.8 °F 93% 30.15 in 7.0 mi ENE 5.8 mph - N/A   Overcast
1:53 AM 45.0 °F 42.6 °F 44.1 °F 97% 30.16 in 7.0 mi East 4.6 mph - 0.00 in   Overcast
2:02 AM 44.6 °F 42.2 °F 44.6 °F 100% 30.15 in 7.0 mi ENE 4.6 mph - N/A   Overcast
2:53 AM 45.0 °F 42.6 °F 41.0 °F 86% 30.15 in 6.0 mi South 4.6 mph - 0.02 in Rain Light Rain
3:53 AM 44.1 °F 40.8 °F 42.1 °F 93% 30.12 in 9.0 mi NE 5.8 mph - 0.01 in Rain Light Rain
4:53 AM 44.1 °F 39.0 °F 43.0 °F 96% 30.09 in 4.0 mi NE 9.2 mph - 0.04 in Rain Light Rain
5:08 AM 44.6 °F 39.7 °F 42.8 °F 93% 30.07 in 5.0 mi NE 9.2 mph - 0.02 in Rain Light Rain
5:53 AM 44.1 °F 38.6 °F 42.1 °F 93% 30.04 in 6.0 mi ENE 10.4 mph - 0.04 in Rain Light Rain
6:08 AM 44.6 °F 38.8 °F 42.8 °F 93% 30.02 in 6.0 mi ENE 11.5 mph - 0.01 in Rain Light Rain
6:43 AM 44.6 °F 39.7 °F 42.8 °F 93% 30.01 in 4.0 mi East 9.2 mph 17.3 mph 0.03 in Rain Light Rain
6:49 AM 44.6 °F 38.8 °F 42.8 °F 93% 30.01 in 4.0 mi ENE 11.5 mph - 0.03 in Rain Light Rain
6:53 AM 44.6 °F 38.4 °F 42.8 °F 93% 30.00 in 3.0 mi ENE 12.7 mph 19.6 mph N/A Rain Light Rain
7:09 AM 44.6 °F 36.9 °F 42.8 °F 93% 29.99 in 2.5 mi ENE 18.4 mph - N/A Rain Light Rain
7:12 AM 42.8 °F 35.1 °F 42.8 °F 100% 29.99 in 3.0 mi ENE 16.1 mph - 0.01 in Rain Light Rain
7:25 AM 42.8 °F 37.0 °F 42.8 °F 100% 29.99 in 2.5 mi NE 10.4 mph - 0.02 in Rain Light Rain
7:36 AM 42.8 °F 35.8 °F 42.8 °F 100% 29.99 in 3.0 mi ENE 13.8 mph - 0.03 in Rain Light Rain
7:42 AM 42.8 °F 36.2 °F 42.8 °F 100% 29.99 in 2.5 mi ENE 12.7 mph - 0.03 in Rain Light Rain
7:45 AM 42.8 °F 37.0 °F 42.8 °F 100% 29.99 in 2.5 mi ENE 10.4 mph - 0.03 in Rain Light Rain
7:53 AM 43.0 °F 37.2 °F 42.1 °F 97% 30.00 in 2.5 mi ENE 10.4 mph - 0.04 in Rain Light Rain
8:11 AM 42.8 °F 36.6 °F 42.8 °F 100% 29.98 in 2.5 mi ENE 11.5 mph - 0.02 in Rain Light Rain
8:33 AM 42.8 °F 36.6 °F 42.8 °F 100% 29.98 in 1.8 mi ENE 11.5 mph - 0.04 in Rain Light Rain
8:53 AM 44.1 °F 38.6 °F 43.0 °F 96% 29.99 in 1.0 mi ENE 10.4 mph - 0.08 in Rain Light Rain
9:30 AM 44.6 °F 39.7 °F 42.8 °F 93% 29.98 in 3.0 mi ENE 9.2 mph - 0.06 in Rain Light Rain
9:53 AM 45.0 °F 41.2 °F 45.0 °F 100% 29.99 in 3.0 mi SE 6.9 mph - 0.09 in Rain Light Rain
9:59 AM 48.2 °F - 48.2 °F 100% 29.98 in 1.8 mi South 15.0 mph 24.2 mph 0.02 in Rain Light Rain
10:14 AM 48.2 °F - 48.2 °F 100% 29.97 in 2.0 mi South 18.4 mph 24.2 mph 0.02 in Rain Light Rain
10:23 AM 48.2 °F - 48.2 °F 100% 29.97 in 1.5 mi South 19.6 mph - 0.03 in Rain Light Rain
10:53 AM 48.9 °F - 48.9 °F 100% 29.97 in 2.0 mi South 19.6 mph 27.6 mph 0.08 in   Overcast
11:11 AM 50.0 °F - 48.2 °F 94% 29.95 in 3.0 mi South 21.9 mph 31.1 mph N/A   Overcast
11:18 AM 50.0 °F - 48.2 °F 94% 29.95 in 2.5 mi South 24.2 mph 31.1 mph N/A   Overcast
11:31 AM 50.0 °F - 48.2 °F 94% 29.94 in 3.0 mi South 23.0 mph - N/A   Overcast
11:53 AM 50.0 °F - 48.9 °F 96% 29.95 in 4.0 mi South 21.9 mph 33.4 mph N/A   Overcast
12:31 PM 50.0 °F - 48.2 °F 94% 29.93 in 2.0 mi South 21.9 mph 28.8 mph 0.04 in   Overcast
12:50 PM 50.0 °F - 48.2 °F 94% 29.92 in 3.0 mi South 23.0 mph - 0.04 in   Overcast
12:53 PM 50.0 °F - 48.9 °F 96% 29.94 in 4.0 mi South 24.2 mph 31.1 mph 0.05 in Rain Light Rain
1:49 PM 50.0 °F - 48.2 °F 94% 29.91 in 2.0 mi South 21.9 mph 34.5 mph 0.04 in   Overcast
1:53 PM 50.0 °F - 48.9 °F 96% 29.92 in 2.0 mi South 24.2 mph 33.4 mph 0.04 in   Overcast
2:21 PM 50.0 °F - 48.2 °F 94% 29.90 in 4.0 mi South 25.3 mph 35.7 mph 0.01 in   Overcast
2:53 PM 50.0 °F - 48.9 °F 96% 29.90 in 5.0 mi South 27.6 mph 34.5 mph 0.03 in   Overcast
3:50 PM 50.0 °F - 48.2 °F 94% 29.87 in 2.0 mi South 26.5 mph 36.8 mph 0.03 in   Overcast
3:53 PM 50.0 °F - 48.9 °F 96% 29.89 in 2.0 mi South 25.3 mph 36.8 mph 0.03 in   Overcast
4:23 PM 50.0 °F - 48.2 °F 94% 29.86 in 1.5 mi South 31.1 mph 38.0 mph 0.02 in   Overcast
4:40 PM 51.8 °F - 48.2 °F 88% 29.86 in 2.5 mi South 27.6 mph 41.4 mph 0.03 in   Overcast
4:53 PM 51.1 °F - 48.9 °F 92% 29.87 in 2.0 mi South 33.4 mph 46.0 mph 0.05 in   Overcast
5:14 PM 51.8 °F - 48.2 °F 88% 29.85 in 4.0 mi South 35.7 mph 43.7 mph N/A   Overcast
5:25 PM 50.0 °F - 48.2 °F 94% 29.85 in 2.5 mi South 27.6 mph 40.3 mph 0.03 in   Overcast
5:36 PM 51.8 °F - 48.2 °F 88% 29.84 in 6.0 mi South 25.3 mph 41.4 mph 0.04 in   Overcast
5:53 PM 51.1 °F - 48.9 °F 92% 29.85 in 6.0 mi South 31.1 mph 46.0 mph 0.04 in   Overcast
6:24 PM 51.8 °F - 48.2 °F 88% 29.83 in 8.0 mi South 35.7 mph 50.6 mph N/A   Overcast
6:51 PM 50.0 °F - 48.2 °F 94% 29.82 in 2.5 mi South 33.4 mph 46.0 mph 0.01 in   Overcast
6:53 PM 50.0 °F - 48.0 °F 93% 29.84 in 3.0 mi South 32.2 mph 46.0 mph 0.01 in   Overcast
7:09 PM 50.0 °F - 48.2 °F 94% 29.82 in 4.0 mi South 32.2 mph 43.7 mph N/A   Overcast
7:53 PM 50.0 °F - 48.0 °F 93% 29.83 in 2.0 mi South 32.2 mph 46.0 mph 0.01 in   Overcast
8:20 PM 50.0 °F - 48.2 °F 94% 29.81 in 2.0 mi South 29.9 mph 42.6 mph 0.03 in   Overcast
8:37 PM 50.0 °F - 48.2 °F 94% 29.80 in 2.0 mi South 27.6 mph 35.7 mph 0.05 in   Overcast
8:53 PM 50.0 °F - 48.2 °F 94% 29.80 in 2.0 mi South 27.6 mph 39.1 mph N/A   Overcast
9:06 PM 50.0 °F - 48.2 °F 94% 29.80 in 1.8 mi South 26.5 mph 39.1 mph 0.02 in   Overcast
9:23 PM 50.0 °F - 48.2 °F 94% 29.80 in 2.0 mi South 32.2 mph 41.4 mph 0.07 in   Overcast
9:53 PM 50.0 °F - 48.0 °F 93% 29.80 in 3.0 mi South 26.5 mph 40.3 mph 0.11 in   Overcast
10:03 PM 50.0 °F - 48.2 °F 94% 29.79 in 2.5 mi South 29.9 mph 40.3 mph 0.02 in   Overcast
10:10 PM 50.0 °F - 48.2 °F 94% 29.78 in 3.0 mi South 33.4 mph 43.7 mph 0.03 in   Overcast
10:53 PM 50.0 °F - 46.9 °F 89% 29.79 in 2.5 mi South 32.2 mph 46.0 mph 0.09 in   Overcast
11:10 PM 50.0 °F - 46.4 °F 87% 29.78 in 3.0 mi South 28.8 mph 41.4 mph 0.03 in   Overcast
11:36 PM 48.2 °F - 46.4 °F 93% 29.78 in 2.0 mi South 26.5 mph 36.8 mph 0.09 in   Overcast
11:51 PM 48.2 °F - 46.4 °F 93% 29.78 in 4.0 mi South 28.8 mph 39.1 mph 0.13 in   Overcast
11:53 PM 48.9 °F - 46.9 °F 93% 29.79 in 4.0 mi SSW 26.5 mph 39.1 mph 0.13 in   Overcast
11:59 PM 48.2 °F - 46.4 °F 93% 29.79 in 2.0 mi SW 20.7 mph 39.1 mph 0.08 in Rain Heavy Rain